Probability
1 1 2 1 0 0 0 0 1 0 0 0 0 1 1 0 1 2 2 2 1 1 2 4 5 5 4 2 1 0 0 0 0 0 0 0 0 0 1 2 2 1 1
1 1 2 2 1 0 0 0 1 0 0 0 0 1 1 0 0 1 1 1 0 1 2 3 4 4 3 2 1 0 0 0 0 0 0 0 0 0 0 1 1 0 1
0 1 1 2 1 0 0 0 0 0 0 0 0 1 1 0 0 0 1 0 0 1 3 3 3 3 2 1 1 0 0 0 0 0 0 0 0 0 0 0 0 0 0
1 1 2 2 1 1 0 0 0 0 0 0 0 0 0 0 0 0 0 0 0 1 2 3 3 2 1 0 0 0 0 0 0 0 0 0 0 0 0 0 1 1 1
1 2 2 2 2 1 0 0 0 0 0 0 0 0 0 0 0 0 0 0 0 1 1 1 2 1 0 0 0 0 0 0 0 0 0 0 1 1 1 1 1 1 0
0 1 1 2 1 1 0 0 0 0 0 0 0 0 0 0 0 0 0 0 0 0 0 0 1 1 0 0 0 0 0 0 0 0 0 0 1 2 2 1 0 0 0
0 0 1 1 1 0 0 0 0 0 0 0 0 0 0 0 0 0 0 0 0 0 0 0 0 0 0 0 0 0 0 0 0 0 0 1 1 3 2 1 0 0 0
0 0 0 0 0 0 0 0 0 0 0 0 0 0 0 0 0 0 0 0 0 0 0 0 0 0 0 0 0 0 0 0 0 0 0 1 2 3 2 1 0 0 0
0 0 0 0 0 0 0 0 0 0 0 0 0 0 0 0 0 0 0 0 0 0 0 0 0 0 0 0 0 0 0 0 0 0 0 1 2 3 2 1 0 0 0
0 0 0 0 0 0 0 0 0 0 0 0 0 0 0 0 0 0 0 0 0 0 0 0 0 0 0 0 0 0 0 0 0 0 0 1 1 1 1 0 0 0 0
0 0 0 0 0 0 0 0 0 0 0 0 0 0 0 0 0 0 0 0 0 0 0 0 0 0 0 0 0 0 0 0 0 0 0 0 0 0 0 0 0 0 0
0 0 0 0 0 0 0 0 0 0 0 0 0 0 0 0 0 0 0 0 0 0 0 0 0 0 0 0 0 0 0 0 0 0 0 0 0 0 0 0 0 0 0
0 0 0 0 0 0 0 0 0 0 0 0 0 0 0 0 0 0 0 0 0 0 0 0 0 0 0 0 0 0 0 0 0 0 0 0 0 1 1 1 1 1 0
0 0 0 0 0 0 1 1 0 0 0 0 0 0 0 0 0 0 0 0 0 0 0 0 0 0 0 0 0 0 0 0 0 0 0 0 0 0 1 1 2 1 1
0 0 0 0 0 1 2 1 0 0 0 0 0 0 0 0 0 0 0 0 0 0 0 0 0 0 0 0 0 0 0 0 0 0 0 0 0 0 0 1 1 1 1
0 0 0 0 0 1 2 1 0 0 0 0 0 0 0 0 0 0 0 0 0 0 0 0 0 0 0 0 0 0 0 0 0 0 0 0 0 0 0 0 0 0 1
0 0 0 0 0 1 1 0 0 0 0 0 0 0 0 0 0 0 0 0 0 0 0 0 0 0 0 0 0 0 0 0 0 0 0 0 0 0 0 0 0 0 0
0 0 0 0 0 0 0 0 0 0 0 0 0 0 0 0 0 0 0 0 0 0 0 0 0 0 0 0 0 0 0 0 0 0 0 0 0 0 0 0 0 0 0
2 2 2 0 0 0 0 0 0 0 0 0 0 0 0 0 0 0 0 0 0 0 0 0 0 0 0 0 0 0 0 0 0 0 0 0 0 0 0 0 0 0 0
4 4 3 1 0 1 1 1 1 0 0 0 0 0 0 0 0 0 0 0 0 0 0 0 0 0 0 0 0 0 0 0 0 0 0 0 0 0 0 0 0 0 0
4 4 4 1 1 2 2 1 1 0 0 0 0 0 0 0 0 0 0 0 0 0 0 0 0 0 0 0 0 0 0 0 0 0 0 0 0 0 0 0 0 0 0
3 3 3 2 2 2 2 1 1 1 0 0 0 0 0 0 0 0 0 0 0 0 0 0 0 0 0 0 0 0 0 0 0 1 2 1 0 0 0 0 0 0 0
4 4 4 4 4 2 1 0 1 1 0 0 0 1 0 0 0 0 0 0 0 0 0 0 0 0 0 0 0 0 0 0 1 2 3 2 1 0 0 0 0 0 0
5 5 6 6 5 3 1 2 2 1 0 0 0 0 0 0 0 0 0 0 0 0 0 0 0 0 0 0 0 0 0 0 1 2 2 2 1 0 0 0 0 0 0
4 6 6 6 5 4 3 4 4 2 1 0 1 1 1 1 0 0 0 0 0 0 0 0 0 0 0 0 0 0 0 0 0 1 1 1 1 0 0 0 1 1 1
4 6 6 6 5 4 4 5 5 3 2 1 2 2 2 2 1 0 0 0 0 0 0 0 1 1 1 0 0 0 0 0 0 0 0 0 0 0 1 1 1 2 1
Wind_Speed
3 4 6 5 6 6 7 9 9 10 10 10 10 10 10 10 11 11 12 12 12 12 11 11 10 10 9 9 9 9 9 8 8 8 8 8 8 7 7 6 4 6 8
3 5 6 5 6 7 8 8 9 9 9 10 10 10 10 11 11 11 12 12 12 12 12 11 11 10 10 9 9 9 8 8 7 7 6 7 8 8 7 7 7 7 8
4 5 6 6 7 8 8 9 9 9 9 9 10 10 11 11 11 11 11 12 12 12 11 11 11 10 10 10 9 8 8 8 6 4 2 5 7 8 7 7 7 7 7
5 5 7 7 7 8 9 9 9 9 9 10 10 10 10 11 11 11 11 11 11 11 11 11 10 10 10 10 9 9 8 8 6 1 3 5 6 8 7 7 6 7 7
5 6 8 6 7 8 9 9 9 9 9 10 10 10 10 10 11 11 11 11 11 11 10 10 10 10 9 9 9 8 8 7 4 3 6 5 6 8 8 7 7 7 7
6 6 8 6 7 8 8 9 9 9 9 9 10 10 10 11 11 11 11 10 10 10 10 10 10 9 9 9 8 8 7 5 2 6 5 5 6 7 8 7 7 7 7
6 6 8 7 7 7 8 8 8 9 9 10 10 10 10 10 10 10 11 11 10 10 10 10 10 10 10 10 9 8 6 4 4 5 5 6 7 8 8 8 7 7 7
6 6 8 8 7 7 8 8 8 9 9 9 9 10 10 10 10 10 10 11 11 10 10 10 10 10 10 9 8 7 6 5 4 5 5 6 8 8 8 8 7 6 6
5 5 5 7 7 7 8 8 8 8 9 9 9 9 9 9 9 10 10 10 10 10 10 10 10 10 9 9 8 8 6 5 3 3 5 5 7 7 8 7 7 6 5
5 5 5 5 5 6 7 8 7 8 8 8 9 9 7 7 8 8 8 10 10 10 9 9 9 9 8 8 8 7 4 2 4 4 4 6 7 6 7 7 6 6 6
5 4 4 4 4 4 5 6 6 6 6 5 6 6 3 4 6 6 10 9 9 9 9 9 9 7 5 7 7 4 2 3 5 4 5 8 6 6 6 6 6 6 6
5 4 3 4 4 4 4 3 3 4 4 3 4 4 3 4 5 5 8 8 8 7 7 8 5 2 1 3 4 0 2 5 5 5 7 8 7 7 7 7 6 6 5
4 4 3 3 3 3 3 2 2 2 2 3 4 4 3 3 3 3 2 3 4 4 4 4 2 3 3 3 3 3 4 4 4 4 7 9 8 8 8 8 7 7 6
4 3 3 2 2 2 3 2 2 2 2 2 2 3 3 2 2 3 2 3 3 2 3 3 2 3 4 4 4 5 5 4 4 4 7 9 9 8 8 8 8 7 7
4 3 3 2 2 2 2 1 2 2 2 2 2 2 3 2 3 3 2 2 3 2 2 2 3 4 4 4 4 5 5 5 5 5 5 9 9 8 8 8 7 7 7
4 4 4 3 2 2 2 2 2 2 2 2 2 3 3 2 2 2 3 3 3 2 2 2 3 3 3 3 4 4 4 5 4 4 4 5 8 8 8 8 7 7 7
5 4 4 3 2 2 2 2 1 1 2 1 2 2 2 2 3 3 2 3 2 2 2 2 3 2 2 2 3 4 4 4 3 4 4 3 4 7 8 8 7 7 6
4 4 5 3 3 3 2 2 1 1 1 1 1 1 1 2 2 2 2 2 2 2 2 2 2 2 2 2 2 2 3 2 3 3 3 3 3 3 6 8 8 8 7
4 4 5 4 3 3 2 2 1 1 1 1 1 0 1 1 2 2 2 2 2 2 2 1 2 2 2 2 2 1 2 2 2 2 3 4 4 3 3 5 6 7 7
4 4 4 4 4 3 2 2 2 1 1 1 0 0 0 0 1 1 1 1 1 1 1 1 2 1 1 1 1 1 1 1 1 2 2 3 3 4 3 3 2 4 6
5 5 4 4 4 3 2 2 2 2 1 1 1 0 0 1 1 1 0 0 0 0 1 1 1 1 1 1 0 1 2 1 1 1 1 2 3 3 3 3 3 2 2
6 6 5 5 4 4 2 2 2 1 1 1 0 1 1 1 1 1 1 1 1 0 0 0 0 1 0 1 2 1 1 3 1 1 1 1 2 2 2 3 3 3 3
7 6 5 5 5 4 4 2 2 2 1 1 1 1 1 1 2 2 2 1 1 1 1 1 1 1 1 1 1 2 2 0 1 2 1 1 1 1 1 2 2 2 3
6 6 6 6 6 5 4 4 4 3 2 2 1 1 1 1 2 2 2 2 2 2 2 2 1 2 2 1 1 1 3 2 2 1 2 1 1 1 2 1 2 2 2
5 5 6 6 6 6 5 5 5 4 3 2 2 2 2 1 2 2 2 3 2 2 2 2 2 2 2 2 1 1 1 1 3 2 1 1 1 0 1 1 1 1 2
3 4 5 5 6 6 6 6 6 5 4 3 3 3 2 2 2 2 3 3 3 2 3 2 2 3 2 2 2 2 2 2 2 2 2 1 1 0 0 1 1 1 1
Wind_Direction
53 59 58 50 61 66 73 75 73 71 72 74 75 74 74 72 71 70 70 72 75 79 79 79 80 82 85 85 85 85 83 81 82 83 84 83 83 82 83 80 80 91 90
66 71 68 52 69 77 78 79 79 76 72 72 73 73 73 73 72 70 72 74 76 76 77 77 77 77 79 80 82 80 79 77 78 83 94 98 86 79 82 73 59 75 83
82 81 87 64 73 79 81 81 82 79 75 72 73 71 69 70 70 71 72 76 77 77 77 75 73 74 75 75 75 77 74 73 72 79 117 93 92 80 81 83 80 84 86
88 85 77 70 74 77 79 79 80 80 76 73 72 70 68 69 70 71 71 74 76 76 76 74 73 72 72 71 71 74 72 69 65 30 79 75 83 80 77 79 80 81 83
93 87 83 68 75 76 77 76 76 77 76 75 74 72 70 69 69 70 72 73 73 73 73 72 70 69 70 70 71 73 72 68 59 48 64 68 72 76 73 74 75 79 78
97 92 88 70 75 76 80 79 77 77 76 75 74 73 70 68 67 66 68 70 70 70 69 68 66 66 66 67 69 70 67 55 59 62 60 64 72 75 76 77 76 76 74
101 96 95 79 77 77 78 79 78 78 76 74 74 72 70 69 67 68 66 66 67 68 66 63 62 63 62 59 60 63 60 26 57 69 67 65 67 72 74 74 74 71 69
103 100 102 98 83 78 77 79 79 77 75 73 73 72 69 68 66 66 65 65 66 65 63 62 61 61 60 56 55 57 46 358 70 68 71 70 67 71 73 68 68 69 66
107 105 104 110 111 102 87 78 78 76 74 72 72 71 69 69 68 67 67 66 68 67 66 63 61 61 60 58 56 56 48 4 41 63 71 70 69 71 76 71 70 70 67
114 109 105 103 102 105 104 91 82 79 74 73 75 71 73 85 84 76 74 68 66 64 65 64 63 61 60 59 56 51 26 301 58 64 60 69 66 69 74 72 70 69 68
117 114 113 110 103 95 91 101 104 100 88 96 97 90 88 78 76 78 66 63 62 61 64 64 62 59 63 77 63 39 344 50 63 55 54 56 55 62 68 69 69 69 68
134 123 116 115 111 103 95 100 95 94 93 79 74 77 64 61 63 66 83 71 65 66 74 68 64 79 30 76 86 38 49 55 59 61 62 51 51 57 62 63 64 64 68
133 127 126 117 110 105 103 89 82 81 85 83 74 75 70 73 82 71 72 89 78 72 65 76 77 52 53 57 49 54 49 45 50 55 61 52 53 56 60 59 58 56 58
142 134 132 131 123 114 100 96 98 92 84 79 75 70 67 62 55 55 53 51 49 52 49 42 41 55 55 60 58 55 57 51 53 56 60 51 51 53 58 57 55 54 55
150 155 149 144 132 119 103 101 101 90 78 81 69 68 65 60 58 55 58 55 48 50 53 44 42 53 52 50 51 49 52 53 51 51 69 58 50 49 53 53 50 51 53
165 162 151 159 147 142 133 129 98 92 96 79 70 58 58 59 56 48 54 52 50 42 43 43 52 54 52 49 50 52 51 54 53 53 55 74 62 49 48 47 48 51 48
171 164 155 164 162 155 138 108 99 109 97 82 77 64 60 57 57 56 48 52 49 49 50 47 55 57 64 63 61 53 51 44 48 51 52 43 65 67 54 46 46 48 47
180 170 158 167 178 160 146 141 122 121 110 101 91 71 61 61 59 56 52 53 48 42 42 54 49 50 56 47 52 54 52 53 51 47 52 54 43 51 67 51 42 42 48
187 179 168 170 177 167 158 153 137 130 127 123 116 95 45 56 61 67 52 47 51 48 41 37 50 35 51 45 46 63 49 47 52 49 50 51 53 44 51 72 56 48 47
189 188 178 168 180 168 170 175 159 161 162 151 153 150 57 66 87 80 80 60 53 53 46 43 60 52 42 35 39 63 67 64 64 51 34 45 42 44 38 44 67 76 59
189 195 188 183 178 173 177 193 191 187 186 181 189 193 213 213 168 129 197 71 44 61 49 64 71 99 71 2 249 160 131 109 77 72 38 36 54 45 39 38 31 30 81
195 203 200 195 186 183 190 201 200 190 207 183 198 196 227 234 213 209 228 217 193 190 190 173 183 271 94 318 296 262 201 165 147 71 57 43 42 55 35 31 34 32 27
201 205 207 201 194 192 191 193 177 167 184 188 206 206 228 247 236 226 224 231 230 228 213 220 222 231 227 216 322 306 291 294 129 149 102 57 34 39 40 25 22 27 39
210 207 208 202 200 194 192 199 198 205 213 224 228 215 207 219 236 237 229 230 230 235 232 222 217 235 233 232 211 299 320 343 283 190 167 138 57 35 21 15 15 27 31
210 207 208 201 202 198 200 202 216 222 228 224 224 220 224 215 228 230 234 233 238 236 238 225 215 229 227 242 241 227 242 261 273 277 244 195 181 74 17 353 2 26 24
201 203 205 201 202 203 207 211 219 222 225 220 223 225 224 211 214 221 228 231 234 232 231 225 220 225 236 234 238 236 243 251 256 259 263 260 272 278 216 3 339 22 17